Time,TemperatureF,DewpointF,PressureIn,WindDirection,WindDirectionDegrees,WindSpeedMPH,WindSpeedGustMPH,Humidity,HourlyPrecipIn,Conditions,Clouds,dailyrainin,SolarRadiationWatts/m^2,SoftwareType,DateUTC
2013-01-06 16:12:00,81.0,69.0,-100.00,South,180,5.0,-999.0,68,0.00,,,-99.99,278.100006,,2013-01-06 21:12:00,
2013-01-06 16:33:00,80.0,68.0,-100.00,South,183,5.0,-999.0,68,0.00,,,-99.99,127.599998,,2013-01-06 21:33:00,
2013-01-06 16:43:00,78.0,68.0,-100.00,SE,145,4.0,-999.0,73,0.00,,,-99.99,71.500000,,2013-01-06 21:43:00,
2013-01-06 16:53:00,78.0,68.0,-100.00,SE,145,4.0,-999.0,73,0.00,,,-99.99,71.500000,,2013-01-06 21:53:00,
2013-01-06 17:02:00,78.0,69.0,-100.00,SE,132,3.0,-999.0,75,0.00,,,-99.99,175.899994,,2013-01-06 22:02:00,
2013-01-06 17:12:00,78.0,69.0,-100.00,ESE,116,4.0,-999.0,73,0.00,,,-99.99,127.000000,,2013-01-06 22:12:00,
2013-01-06 17:22:00,78.0,69.0,-100.00,ESE,116,4.0,-999.0,73,0.00,,,-99.99,127.000000,,2013-01-06 22:22:00,
2013-01-06 17:33:00,77.0,69.0,-100.00,SE,129,2.0,-999.0,75,0.00,,,-99.99,31.299999,,2013-01-06 22:33:00,
2013-01-06 17:43:00,75.0,69.0,-100.00,South,182,1.0,-999.0,79,0.00,,,-99.99,11.100000,,2013-01-06 22:43:00,
2013-01-06 17:53:00,75.0,69.0,-100.00,South,182,1.0,-999.0,79,0.00,,,-99.99,11.100000,,2013-01-06 22:53:00,
2013-01-06 18:02:00,74.0,68.0,-100.00,SE,132,1.0,-999.0,83,0.00,,,-99.99,4.900000,,2013-01-06 23:02:00,
2013-01-06 18:12:00,73.0,69.0,-100.00,SW,221,7.0,-999.0,86,0.00,,,-99.99,0.500000,,2013-01-06 23:12:00,
2013-01-06 18:22:00,73.0,69.0,-100.00,SW,221,7.0,-999.0,86,0.00,,,-99.99,0.500000,,2013-01-06 23:22:00,
2013-01-06 18:33:00,72.0,68.0,-100.00,NW,307,12.0,-999.0,86,0.00,,,-99.99,0.000000,,2013-01-06 23:33:00,
2013-01-06 18:43:00,71.0,68.0,-100.00,NNW,327,8.0,-999.0,90,0.00,,,-99.99,0.000000,,2013-01-06 23:43:00,
2013-01-06 18:53:00,71.0,68.0,-100.00,NNW,327,8.0,-999.0,90,0.00,,,-99.99,0.000000,,2013-01-06 23:53:00,
2013-01-06 19:02:00,70.0,67.0,-100.00,NNW,327,5.0,-999.0,90,0.00,,,-99.99,0.000000,,2013-01-07 00:02:00,
2013-01-06 19:12:00,70.0,67.0,-100.00,NNW,334,6.0,-999.0,91,0.00,,,-99.99,0.000000,,2013-01-07 00:12:00,
2013-01-06 19:23:00,70.0,67.0,-100.00,NNW,334,6.0,-999.0,91,0.00,,,-99.99,0.000000,,2013-01-07 00:23:00,
2013-01-06 19:33:00,69.0,67.0,-100.00,North,1,4.0,-999.0,92,0.00,,,-99.99,0.000000,,2013-01-07 00:33:00,
2013-01-06 19:43:00,68.0,67.0,-100.00,NNE,25,4.0,-999.0,93,0.00,,,-99.99,0.000000,,2013-01-07 00:43:00,
2013-01-06 19:53:00,68.0,67.0,-100.00,NNE,25,4.0,-999.0,93,0.00,,,-99.99,0.000000,,2013-01-07 00:53:00,
2013-01-06 20:02:00,68.0,66.0,-100.00,NNE,23,3.0,-999.0,94,0.00,,,-99.99,0.000000,,2013-01-07 01:02:00,
2013-01-06 20:12:00,68.0,66.0,-100.00,NNW,347,4.0,-999.0,95,0.00,,,-99.99,0.000000,,2013-01-07 01:12:00,
2013-01-06 20:23:00,68.0,66.0,-100.00,NNW,347,4.0,-999.0,95,0.00,,,-99.99,0.000000,,2013-01-07 01:23:00,
2013-01-06 20:32:00,67.0,66.0,-100.00,NW,324,4.0,-999.0,95,0.00,,,-99.99,0.000000,,2013-01-07 01:32:00,
2013-01-06 20:43:00,67.0,66.0,-100.00,NW,318,5.0,-999.0,96,0.00,,,-99.99,0.000000,,2013-01-07 01:43:00,
2013-01-06 20:53:00,67.0,66.0,-100.00,NW,318,5.0,-999.0,96,0.00,,,-99.99,0.000000,,2013-01-07 01:53:00,
2013-01-06 21:02:00,67.0,66.0,-100.00,NW,325,5.0,-999.0,96,0.00,,,-99.99,0.000000,,2013-01-07 02:02:00,
2013-01-06 21:12:00,67.0,66.0,-100.00,NNW,327,5.0,-999.0,96,0.00,,,-99.99,0.100000,,2013-01-07 02:12:00,
2013-01-06 21:23:00,67.0,66.0,-100.00,NNW,327,5.0,-999.0,96,0.00,,,-99.99,0.100000,,2013-01-07 02:23:00,
2013-01-06 21:32:00,67.0,66.0,-100.00,NNW,331,5.0,-999.0,96,0.00,,,-99.99,0.100000,,2013-01-07 02:32:00,
2013-01-06 21:42:00,67.0,66.0,-100.00,NNW,331,5.0,-999.0,96,0.00,,,-99.99,0.100000,,2013-01-07 02:42:00,
2013-01-06 21:53:00,67.0,66.0,-100.00,NW,325,5.0,-999.0,96,0.00,,,-99.99,0.100000,,2013-01-07 02:53:00,
2013-01-06 22:02:00,67.0,66.0,-100.00,NW,323,5.0,-999.0,97,0.00,,,-99.99,0.100000,,2013-01-07 03:02:00,
2013-01-06 22:12:00,67.0,66.0,-100.00,NNW,335,4.0,-999.0,97,0.00,,,-99.99,0.100000,,2013-01-07 03:12:00,
2013-01-06 22:23:00,67.0,66.0,-100.00,NNW,335,4.0,-999.0,97,0.00,,,-99.99,0.100000,,2013-01-07 03:23:00,
2013-01-06 22:33:00,67.0,66.0,-100.00,North,1,2.0,-999.0,97,0.00,,,-99.99,0.100000,,2013-01-07 03:33:00,
2013-01-06 22:43:00,67.0,66.0,-100.00,NNE,14,2.0,-999.0,97,0.00,,,-99.99,0.100000,,2013-01-07 03:43:00,
2013-01-06 22:53:00,67.0,66.0,-100.00,NNE,14,2.0,-999.0,97,0.00,,,-99.99,0.100000,,2013-01-07 03:53:00,
2013-01-06 23:02:00,67.0,66.0,-100.00,North,3,4.0,-999.0,97,0.00,,,-99.99,0.100000,,2013-01-07 04:02:00,
2013-01-06 23:12:00,67.0,66.0,-100.00,North,359,3.0,-999.0,97,0.00,,,-99.99,0.100000,,2013-01-07 04:12:00,
2013-01-06 23:22:00,67.0,66.0,-100.00,North,359,3.0,-999.0,97,0.00,,,-99.99,0.100000,,2013-01-07 04:22:00,
2013-01-06 23:32:00,66.0,66.0,-100.00,North,9,2.0,-999.0,97,0.00,,,-99.99,0.100000,,2013-01-07 04:32:00,
2013-01-06 23:42:00,66.0,65.0,-100.00,NNE,21,2.0,-999.0,97,0.00,,,-99.99,0.100000,,2013-01-07 04:42:00,
2013-01-06 23:52:00,66.0,65.0,-100.00,NNE,21,2.0,-999.0,97,0.00,,,-99.99,0.100000,,2013-01-07 04:52:00,